Terug naar catalogus

STARLINK-31552

ActiefCommunicatieVLEO
NORAD 59356·PAYLOAD·🇺🇸 United States

Gelanceerd Mar 31, 2024 vanaf Cape Canaveral Space Force Station

Loading…

Volgende Passages (komende 24 uur)

TLE

VersSource: CelesTrak SupGP

Epoch: Sep 15, 2026, 02:53 UTC

1 59356C 24060J   26258.12062500 -.00010381  00000+0 -37605-3 0  2585
2 59356  43.0010 270.4086 0001300 263.3520 320.3611 15.27579577    12

Volg STARLINK-31552 in realtime met AllMySat

Download on the App Store